Location: Newark
(46.3192°N, 6.0700°E)
Time: 00:12:37
(UTC+00:00)

Envisat - Visible Passes

Search period start: 16 October 2019 00:00
Search period end: 26 October 2019 00:00
Orbit: 764 x 766 km, 98.1° (Epoch: 15 October)

Date Brightness Start Highest point End Pass type
(mag) Time Alt. Az. Time Alt. Az. Time Alt. Az.
16 Oct 4.6 18:20:04 10° SSW 18:24:45 37° W 18:29:27 10° NNW visible
17 Oct 3.2 17:42:46 10° S 17:47:51 78° WSW 17:52:57 10° NNW visible
18 Oct 5.5 18:46:33 10° SW 18:50:27 22° W 18:54:23 10° NW visible
19 Oct 6.3 05:13:53 10° NE 05:16:38 15° E 05:19:23 10° ESE visible
19 Oct 4.2 18:08:34 10° S 18:13:25 46° W 18:18:19 10° NNW visible
20 Oct 3.0 17:31:30 10° SSE 17:36:34 86° ENE 17:41:42 10° NNW visible
20 Oct 6.1 19:14:00 10° WSW 19:16:16 13° W 19:18:34 10° WNW visible
21 Oct 5.1 18:34:48 10° SSW 18:39:06 27° W 18:43:24 10° NW visible
22 Oct 6.6 05:03:36 10° ENE 05:05:13 11° E 05:06:49 10° ESE visible
22 Oct 3.7 17:57:08 10° S 18:02:07 57° W 18:07:08 10° NNW visible
23 Oct 3.0 17:20:18 10° SSE 17:25:20 69° ENE 17:30:24 10° N visible
23 Oct 5.9 19:01:44 10° SW 19:04:52 16° W 19:08:02 10° NW visible
24 Oct 6.0 05:27:23 10° NE 05:31:04 20° E 05:34:43 10° SE visible
24 Oct 4.7 18:23:10 10° SSW 18:27:44 34° W 18:32:21 10° NNW visible
25 Oct 3.3 17:45:46 10° S 17:50:49 71° WSW 17:55:56 10° NNW visible
